Location: Chomutov
(50.4500°N, 13.4333°E)
Time: 01:51:38
(UTC+02:00)

FO-29 - Pass Details

Date: 29 September 2021
Orbit: 800 x 1321 km, 98.6° (Epoch: 27 October)

Event Time Altitude Azimuth Distance (km) Brightness Sun altitude
Exits shadow 19:13:25 - 96° (E) 3,760 11.8 -4.8°
Reaches altitude 10° 19:15:07 10° 87° (E) 3,341 11.6 -5.1°
Maximum altitude 19:20:15 20° 46° (NE) 2,694 11.4 -5.9°
Drops below altitude 10° 19:25:22 10° 5° (N) 3,338 12.3 -6.7°
Sets 19:28:54 0° 349° (N) 4,272 13.1 -7.2°
